Pleasanton, TX

9:45 PM CDT on October 18, 2017 (GMT -0500)
Pleasanton Municipal

Weather History for KPEZ - July, 2013

Change the Weather History Date:

Saturday, July 27, 2013

  Actual Average Record
Temperature  
Mean Temperature 86 °F -  
Max Temperature 97 °F 99 °F 102 °F (2011)
Min Temperature 75 °F 74 °F 71 °F (2007)
Cooling Degree Days 21    
Growing Degree Days 36 (Base 50)    
Moisture  
Dew Point 71 °F    
Average Humidity 64    
Maximum Humidity 90    
Minimum Humidity 40    
Precipitation  
Precipitation 0.00 in - - ()
Sea Level Pressure  
Sea Level Pressure 29.92 in    
Wind  
Wind Speed 6 mph (NE)    
Max Wind Speed 16 mph    
Max Gust Speed 26 mph    
Visibility 10 miles    
Events      
Averages and records for this station are not official NWS values.
T = Trace of Precipitation, MM = Missing Value Source: NWS Daily Summary

Daily Weather History Graph

Daily Weather History Graph

Search for Another Location

Airport or City:

Trip Planner

Search our weather history database for the weather conditions in past years. The results will help you decide how hot, cold, wet, or windy it might be!

Date:

Astronomy

Jul. 27, 2013 Rise Set
Actual Time 6:52 AM CDT 8:28 PM CDT
Civil Twilight 6:26 AM CDT 8:54 PM CDT
Nautical Twilight 5:55 AM CDT 9:25 PM CDT
Astronomical Twilight 5:22 AM CDT 9:57 PM CDT
Moon 11:51 PM CDT (7/27) 12:02 PM CDT (7/27)
Length of Visible Light 14h 27m
Length of Day
13h 36m
Waning Gibbous, 70% of the Moon is Illuminated
Jul 27
Waning Gibbous
Jul 29
Last Quarter
Aug 6
New
Aug 14
First Quarter
Aug 20
Full

Hourly Weather History & Observations

Time (CDT) Temp. Heat Index Dew Point Humidity Pressure Visibility Wind Dir Wind Speed Gust Speed Precip Events Conditions
12:15 AM 81.7 °F 85.8 °F 70.9 °F 70% 29.95 in 10.0 mi SE 8.1 mph - N/A   Clear
12:35 AM 81.3 °F 85.4 °F 71.2 °F 71% 29.94 in 10.0 mi SE 8.1 mph - N/A   Clear
12:55 AM 81.0 °F 85.1 °F 71.6 °F 73% 29.95 in 10.0 mi SE 6.9 mph - N/A   Clear
1:15 AM 80.8 °F 84.9 °F 71.8 °F 74% 29.96 in 10.0 mi SE 5.8 mph - N/A   Clear
1:35 AM 80.1 °F 83.8 °F 72.0 °F 76% 29.95 in 10.0 mi SE 6.9 mph - N/A   Clear
1:55 AM 79.9 °F - 72.1 °F 77% 29.95 in 10.0 mi SE 6.9 mph - N/A   Clear
2:15 AM 79.9 °F - 72.3 °F 78% 29.95 in 10.0 mi SE 6.9 mph - N/A   Clear
2:35 AM 79.5 °F - 72.3 °F 79% 29.94 in 10.0 mi SE 5.8 mph - N/A   Clear
2:55 AM 79.2 °F - 72.1 °F 79% 29.95 in 10.0 mi Calm Calm - N/A   Scattered Clouds
3:15 AM 79.0 °F - 72.0 °F 79% 29.96 in 10.0 mi Calm Calm - N/A   Overcast
3:35 AM 79.7 °F - 72.1 °F 78% 29.99 in 10.0 mi North 8.1 mph 21.9 mph N/A   Overcast
3:55 AM 79.3 °F - 72.1 °F 79% 29.96 in 10.0 mi North 3.5 mph - N/A   Scattered Clouds
4:15 AM 79.2 °F - 72.0 °F 78% 29.92 in 10.0 mi ESE 4.6 mph - N/A   Clear
4:35 AM 78.4 °F - 72.1 °F 81% 29.90 in 10.0 mi Calm Calm - N/A   Clear
4:55 AM 77.4 °F - 72.0 °F 83% 29.92 in 10.0 mi NNW 4.6 mph - N/A   Clear
5:15 AM 77.0 °F - 71.8 °F 84% 29.93 in 10.0 mi Calm Calm - N/A   Clear
5:35 AM 77.0 °F - 71.8 °F 84% 29.93 in 10.0 mi Calm Calm - N/A   Clear
5:55 AM 76.5 °F - 71.8 °F 85% 29.93 in 10.0 mi Calm Calm - N/A   Clear
6:15 AM 76.3 °F - 72.1 °F 87% 29.94 in 10.0 mi Calm Calm - N/A   Clear
6:35 AM 75.2 °F - 72.0 °F 90% 29.94 in 10.0 mi NE 4.6 mph - N/A   Clear
6:55 AM 76.1 °F - 72.1 °F 87% 29.95 in 10.0 mi Calm Calm - N/A   Clear
7:15 AM 75.6 °F - 72.0 °F 89% 29.96 in 10.0 mi East 3.5 mph - N/A   Clear
7:35 AM 76.1 °F - 71.8 °F 86% 29.96 in 10.0 mi East 3.5 mph - N/A   Clear
7:55 AM 77.2 °F - 71.8 °F 83% 29.96 in 10.0 mi East 4.6 mph - N/A   Clear
8:15 AM 78.4 °F - 71.6 °F 79% 29.97 in 10.0 mi East 4.6 mph - N/A   Clear
8:35 AM 79.9 °F - 71.6 °F 76% 29.97 in 10.0 mi East 4.6 mph - N/A   Clear
8:55 AM 82.0 °F 86.7 °F 71.6 °F 71% 29.97 in 10.0 mi East 4.6 mph - N/A   Clear
9:15 AM 83.3 °F 87.9 °F 71.1 °F 66% 29.96 in 10.0 mi ESE 3.5 mph - N/A   Clear
9:35 AM 84.6 °F 89.4 °F 70.9 °F 63% 29.96 in 10.0 mi East 4.6 mph - N/A   Clear
9:55 AM 85.5 °F 90.4 °F 70.7 °F 61% 29.97 in 10.0 mi Calm Calm - N/A   Clear
10:15 AM 86.4 °F 91.1 °F 70.2 °F 58% 29.96 in 10.0 mi NE 3.5 mph - N/A   Clear
10:35 AM 87.1 °F 92.4 °F 70.7 °F 58% 29.96 in 10.0 mi Calm Calm - N/A   Scattered Clouds
10:55 AM 88.7 °F 93.9 °F 70.2 °F 54% 29.96 in 10.0 mi NE 5.8 mph - N/A   Scattered Clouds
11:15 AM 88.9 °F 93.8 °F 70.0 °F 53% 29.96 in 10.0 mi NNE 3.5 mph - N/A   Clear
11:35 AM 89.8 °F 95.1 °F 70.2 °F 52% 29.96 in 10.0 mi Calm Calm - N/A   Scattered Clouds
11:55 AM 90.7 °F 96.4 °F 70.3 °F 51% 29.95 in 10.0 mi NE 6.9 mph - N/A   Clear
12:15 PM 91.6 °F 97.2 °F 69.8 °F 49% 29.95 in 10.0 mi Calm Calm - N/A   Clear
12:35 PM 92.8 °F 99.2 °F 70.3 °F 48% 29.95 in 10.0 mi NE 4.6 mph - N/A   Clear
12:55 PM 92.5 °F 98.4 °F 70.0 °F 48% 29.94 in 10.0 mi NE 4.6 mph - N/A   Mostly Cloudy
1:15 PM 93.2 °F 98.8 °F 69.6 °F 46% 29.94 in 10.0 mi WNW 3.5 mph - N/A   Mostly Cloudy
1:35 PM 93.2 °F 99.9 °F 70.9 °F 48% 29.93 in 10.0 mi NE 5.8 mph - N/A   Mostly Cloudy
1:55 PM 95.0 °F 101.3 °F 70.0 °F 44% 29.92 in 10.0 mi NE 3.5 mph - N/A   Scattered Clouds
2:15 PM 96.3 °F 103.3 °F 70.2 °F 43% 29.91 in 10.0 mi NW 3.5 mph - N/A   Clear
2:35 PM 96.4 °F 103.0 °F 70.0 °F 42% 29.91 in 10.0 mi North 6.9 mph - N/A   Clear
2:55 PM 96.3 °F 102.0 °F 69.1 °F 41% 29.90 in 10.0 mi ENE 6.9 mph - N/A   Scattered Clouds
3:15 PM 97.3 °F 103.6 °F 69.4 °F 40% 29.89 in 10.0 mi NNE 3.5 mph - N/A   Scattered Clouds
3:35 PM 95.2 °F 101.0 °F 69.3 °F 43% 29.88 in 10.0 mi NE 9.2 mph - N/A   Scattered Clouds
3:55 PM 95.9 °F 102.5 °F 69.8 °F 43% 29.88 in 10.0 mi NNE 9.2 mph - N/A   Overcast
4:15 PM 93.4 °F 99.7 °F 70.7 °F 47% 29.87 in 10.0 mi NE 13.8 mph 17.3 mph N/A   Mostly Cloudy
4:35 PM 96.6 °F 103.4 °F 70.3 °F 42% 29.86 in 10.0 mi NNE 15.0 mph 20.7 mph N/A   Scattered Clouds
4:55 PM 94.6 °F 101.1 °F 70.3 °F 45% 29.85 in 10.0 mi NE 13.8 mph 18.4 mph N/A   Scattered Clouds
5:15 PM 93.2 °F 99.4 °F 70.3 °F 47% 29.85 in 10.0 mi North 12.7 mph 16.1 mph N/A   Clear
5:35 PM 92.3 °F 98.1 °F 70.2 °F 48% 29.85 in 10.0 mi NNE 11.5 mph 16.1 mph N/A   Clear
5:55 PM 92.3 °F 98.1 °F 70.2 °F 48% 29.85 in 10.0 mi North 12.7 mph 16.1 mph N/A   Clear
6:15 PM 91.9 °F 97.4 °F 69.8 °F 48% 29.85 in 10.0 mi NNE 10.4 mph 16.1 mph N/A   Clear
6:35 PM 93.4 °F 98.6 °F 69.1 °F 45% 29.84 in 10.0 mi North 10.4 mph 18.4 mph N/A   Clear
6:55 PM 92.8 °F 97.6 °F 68.7 °F 45% 29.85 in 10.0 mi NNE 9.2 mph - N/A   Clear
7:15 PM 92.1 °F 95.3 °F 66.9 °F 43% 29.87 in 10.0 mi NNE 6.9 mph - N/A   Clear
7:35 PM 90.9 °F 94.4 °F 67.5 °F 46% 29.88 in 10.0 mi NE 9.2 mph 16.1 mph N/A   Clear
7:55 PM 90.1 °F 93.5 °F 67.5 °F 47% 29.88 in 10.0 mi NE 10.4 mph 16.1 mph N/A   Clear
8:15 PM 89.4 °F 92.7 °F 67.6 °F 48% 29.89 in 10.0 mi ENE 9.2 mph - N/A   Clear
8:35 PM 87.8 °F 91.8 °F 68.9 °F 53% 29.91 in 10.0 mi ESE 16.1 mph 26.5 mph N/A   Mostly Cloudy
8:55 PM 81.1 °F 85.0 °F 71.1 °F 71% 29.91 in 10.0 mi SSE 6.9 mph 19.6 mph N/A   Mostly Cloudy
9:15 PM 79.9 °F - 70.7 °F 73% 29.90 in 10.0 mi SE 4.6 mph - N/A   Clear
9:35 PM 79.3 °F - 70.0 °F 73% 29.89 in 10.0 mi ESE 3.5 mph - N/A   Clear
9:55 PM 78.8 °F - 69.4 °F 73% 29.90 in 10.0 mi Calm Calm - N/A   Clear
10:15 PM 78.3 °F - 69.8 °F 75% 29.89 in 10.0 mi North 3.5 mph - N/A   Clear
10:35 PM 78.6 °F - 70.0 °F 75% 29.89 in 10.0 mi NNE 4.6 mph - N/A   Clear
10:55 PM 78.3 °F - 70.0 °F 76% 29.89 in 10.0 mi North 4.6 mph - N/A   Clear
11:15 PM 77.9 °F - 70.2 °F 77% 29.90 in 10.0 mi NNE 3.5 mph - N/A   Clear
11:35 PM 77.5 °F - 70.3 °F 78% 29.90 in 10.0 mi NNE 3.5 mph - N/A   Clear
11:55 PM 77.7 °F - 70.7 °F 79% 29.91 in 10.0 mi NNE 3.5 mph - N/A   Clear